QLK1939 YBBN-YPAD

Flight info

Callsign QLK1939
Flight time N/A
Altitude 38000
Route BN H91 SANEG Q4 PAVBI Q16 MIA Q4 WOONA Q60 KAKLU H309 AD
Aircraft E190/M-SDE3GILORVW/S

Departure

Time 2026-05-06 09:47
Airport Brisbane International Airport (YBBN)

Arrival

Time N/A
Airport Adelaide International Airport (YPAD)
Time Latitude Longitude Altitude Speed Heading
2026-05-06 09:13 -27.38290 153.12281 20 ft 0 kts 259°
2026-05-06 09:38 -27.38286 153.12306 20 ft 4 kts 259°
2026-05-06 09:39 -27.38282 153.12329 22 ft 4 kts 254°
2026-05-06 09:39 -27.38276 153.12357 23 ft 4 kts 283°
2026-05-06 09:39 -27.38284 153.12383 22 ft 4 kts 309°
2026-05-06 09:39 -27.38304 153.12398 24 ft 3 kts 349°
2026-05-06 09:40 -27.38325 153.12403 20 ft 1 kts 349°
2026-05-06 09:43 -27.38325 153.12402 20 ft 0 kts 348°
2026-05-06 09:43 -27.38312 153.12404 22 ft 4 kts
2026-05-06 09:43 -27.38281 153.12424 20 ft 6 kts 47°
2026-05-06 09:43 -27.38282 153.12472 22 ft 6 kts 111°
2026-05-06 09:44 -27.38303 153.12527 20 ft 10 kts 112°
2026-05-06 09:44 -27.38286 153.12596 21 ft 11 kts 37°
2026-05-06 09:44 -27.38204 153.12645 20 ft 15 kts 26°
2026-05-06 09:44 -27.38095 153.12706 21 ft 20 kts 27°
2026-05-06 09:45 -27.37996 153.12781 21 ft 13 kts 63°
2026-05-06 09:45 -27.38006 153.12844 23 ft 11 kts 114°
2026-05-06 09:45 -27.38038 153.12923 20 ft 9 kts 115°
2026-05-06 09:45 -27.38054 153.12959 20 ft 0 kts 120°
2026-05-06 09:46 -27.38055 153.12961 20 ft 1 kts 118°
2026-05-06 09:46 -27.38076 153.13001 20 ft 10 kts 122°
2026-05-06 09:46 -27.38144 153.13041 20 ft 11 kts 186°
2026-05-06 09:46 -27.38245 153.12990 23 ft 35 kts 204°
2026-05-06 09:47 -27.38712 153.12721 20 ft 114 kts 207°
2026-05-06 09:47 -27.39634 153.12199 90 ft 177 kts 207°
2026-05-06 09:47 -27.40879 153.11484 608 ft 216 kts 207°
2026-05-06 09:47 -27.42222 153.10707 1715 ft 223 kts 204°
2026-05-06 09:48 -27.43744 153.10169 2728 ft 242 kts 188°
2026-05-06 09:48 -27.45624 153.10088 3077 ft 297 kts 173°
2026-05-06 09:48 -27.47593 153.10670 3176 ft 288 kts 155°
2026-05-06 09:48 -27.49304 153.11724 3431 ft 277 kts 149°
2026-05-06 09:49 -27.50960 153.12786 3639 ft 277 kts 152°
2026-05-06 09:49 -27.52699 153.13668 4188 ft 264 kts 162°
2026-05-06 09:49 -27.54468 153.14047 4480 ft 265 kts 176°
2026-05-06 09:49 -27.56369 153.13961 4247 ft 284 kts 185°
2026-05-06 09:50 -27.58344 153.13712 4424 ft 283 kts 188°
2026-05-06 09:50 -27.60234 153.13252 4939 ft 271 kts 197°
2026-05-06 09:50 -27.61949 153.12556 5577 ft 254 kts 202°
2026-05-06 09:50 -27.63578 153.11814 5883 ft 254 kts 203°
2026-05-06 09:51 -27.65235 153.11054 6055 ft 258 kts 203°
2026-05-06 09:51 -27.66948 153.10300 5782 ft 279 kts 204°
2026-05-06 09:51 -27.68818 153.09406 5600 ft 300 kts 204°
2026-05-06 09:51 -27.70742 153.08533 5721 ft 293 kts 202°
2026-05-06 09:52 -27.72617 153.07745 6021 ft 282 kts 202°
2026-05-06 09:52 -27.74453 153.07020 6040 ft 282 kts 200°
2026-05-06 09:52 -27.76331 153.06351 6096 ft 279 kts 199°
2026-05-06 09:52 -27.77521 153.05888 6407 ft 267 kts 201°
2026-05-06 09:53 -27.79201 153.05203 6960 ft 245 kts 203°
2026-05-06 09:53 -27.81139 153.04184 7892 ft 221 kts 212°
2026-05-06 09:53 -27.82450 153.03230 8430 ft 233 kts 216°
2026-05-06 09:53 -27.83347 153.02506 8665 ft 244 kts 218°
2026-05-06 09:54 -27.84737 153.01329 9178 ft 255 kts 218°
2026-05-06 09:54 -27.86181 153.00109 9779 ft 263 kts 220°
2026-05-06 09:54 -27.87560 152.98762 10512 ft 262 kts 224°
2026-05-06 09:54 -27.88984 152.97399 10984 ft 275 kts 222°
2026-05-06 09:55 -27.91041 152.95529 11406 ft 298 kts 221°
2026-05-06 09:55 -27.92131 152.94485 11650 ft 308 kts 224°
2026-05-06 09:55 -27.93742 152.92817 12036 ft 319 kts 226°
2026-05-06 09:55 -27.95305 152.91057 12841 ft 312 kts 230°
2026-05-06 09:56 -27.96792 152.89314 13832 ft 308 kts 227°
2026-05-06 09:56 -27.98413 152.87682 14403 ft 316 kts 223°
2026-05-06 09:56 -28.00098 152.86039 14846 ft 326 kts 225°
2026-05-06 09:56 -28.01808 152.84294 15039 ft 335 kts 224°
2026-05-06 09:57 -28.03620 152.82605 15276 ft 339 kts 221°
2026-05-06 09:57 -28.05499 152.81011 15594 ft 337 kts 220°
2026-05-06 09:57 -28.07403 152.79443 16134 ft 341 kts 220°
2026-05-06 09:57 -28.09301 152.77833 16803 ft 340 kts 221°
2026-05-06 09:58 -28.11212 152.76233 17088 ft 351 kts 221°
2026-05-06 09:58 -28.13106 152.74539 17791 ft 342 kts 224°
2026-05-06 09:58 -28.14893 152.72788 18607 ft 336 kts 228°
2026-05-06 09:58 -28.16534 152.70950 19361 ft 328 kts 231°
2026-05-06 09:59 -28.18110 152.69114 20103 ft 324 kts 232°
2026-05-06 09:59 -28.19689 152.67245 20440 ft 334 kts 232°
2026-05-06 09:59 -28.21305 152.65294 20729 ft 343 kts 233°
2026-05-06 09:59 -28.22893 152.63257 21294 ft 344 kts 233°
2026-05-06 10:00 -28.24529 152.61298 22084 ft 339 kts 233°
2026-05-06 10:00 -28.26148 152.59409 22997 ft 330 kts 230°
2026-05-06 10:00 -28.27839 152.57731 24050 ft 312 kts 226°
2026-05-06 10:00 -28.29532 152.56280 24620 ft 312 kts 224°
2026-05-06 10:01 -28.31337 152.54790 24701 ft 323 kts 224°
2026-05-06 10:01 -28.33099 152.53320 25553 ft 303 kts 224°
2026-05-06 10:01 -28.34740 152.51914 26042 ft 299 kts 230°
2026-05-06 10:01 -28.36253 152.50310 26418 ft 287 kts 232°
2026-05-06 10:02 -28.37670 152.48867 27474 ft 263 kts 232°
2026-05-06 10:02 -28.39028 152.47453 27633 ft 269 kts 234°
2026-05-06 10:02 -28.40356 152.45923 27760 ft 273 kts 236°
2026-05-06 10:02 -28.41626 152.44383 28166 ft 267 kts 238°